8,
Avoca, PA
on Monday, January 28, 2013

Monday
Previous Day Next Day
Daily Summary
 ActualAverageRecord
Temperature
Mean Temperature °F 26°F  
Max Temperature 46°F 34°F 60°F (1916)
Min Temperature 23°F 19°F -11°F (1925)
Degree Days
Heating Degree Days 30 39  
Month to date heating degree days 1009 1091  
Since 1 July heating degree days 3123 3469  
Cooling Degree Days 0 0  
Month to date cooling degree days 0 0  
Year to date cooling degree days 0 0  
Moisture
Dew Point 25°F   
Average Humidity 54    
Maximum Humidity 70    
Minimum Humidity 38    
Precipitation
Precipitation 0.28 in 0.08 in 0.70 in (2009)
Month to date precipitation 1.02 2.12  
Year to date precipitation 1.02 2.12  
Wind
Wind Speed 5 mph   
Max Wind Speed 12 mph   
Max Gust Speed 22 mph   
Visibility 3 miles   
Events Rain , Snow   

Key: T is trace of precipitation, MM is missing value
Source: NWS Daily Summary
Time(EST)TemperatureDew PointHumidity Pressure Visibility Wind DirectionWind SpeedGust SpeedPrecipitationEvents Conditions
12:54 AM 33.1°F 10.0°F 38% 30.43 in 10.0 miles East 4.6 mph - N/A   Mostly Cloudy
1:54 AM 28.9°F 10.9°F 47% 30.40 in 10.0 miles NE 6.9 mph - N/A   Scattered Clouds
2:54 AM 24.1°F 12.0°F 60% 30.40 in 9.0 miles Calm Calm - N/A   Overcast
3:54 AM 26.1°F 12.9°F 58% 30.38 in 9.0 miles Calm Calm - N/A   Overcast
4:54 AM 26.1°F 14.0°F 60% 30.35 in 9.0 miles Calm Calm - N/A   Overcast
5:54 AM 28.9°F 15.1°F 56% 30.34 in 5.0 miles Calm Calm - 0.00 in Snow Light Snow
6:04 AM 32.0°F 15.8°F 51% 30.30 in 5.0 miles Calm Calm - 0.00 in Snow Light Snow
6:54 AM 28.9°F 18.0°F 64% 30.33 in 6.0 miles Calm Calm - 0.00 in   Haze
7:33 AM 28.4°F 17.6°F 64% 30.30 in 1.8 miles Calm Calm - 0.00 in Snow Light Snow
7:54 AM 28.0°F 19.9°F 72% 30.33 in 1.5 miles Calm Calm - 0.00 in Snow Light Snow
8:04 AM 28.4°F 19.4°F 69% 30.29 in 2.5 miles Calm Calm - 0.00 in Snow Light Snow
8:15 AM 28.4°F 19.4°F 69% 30.28 in 1.5 miles Calm Calm - 0.01 in Snow Light Snow
8:47 AM 33.8°F 21.2°F 60% 30.26 in 2.5 miles Calm Calm - 0.01 in Snow Light Snow
8:54 AM 37.9°F 21.9°F 53% 30.27 in 2.0 miles Calm Calm - 0.01 in Snow Light Snow
9:03 AM 42.8°F 21.2°F 42% 30.23 in 1.8 miles Variable 4.6 mph - 0.00 in   Unknown
9:16 AM 44.6°F 21.2°F 39% 30.23 in 2.5 miles SSW 6.9 mph - 0.01 in Rain Light Rain
9:24 AM 42.8°F 21.2°F 42% 30.23 in 4.0 miles SW 5.8 mph - 0.01 in Rain Light Rain
9:31 AM 42.8°F 23.0°F 46% 30.23 in 4.0 miles SW 5.8 mph - 0.01 in Rain Light Rain
9:54 AM 44.1°F 24.1°F 45% 30.23 in 3.0 miles South 9.2 mph - 0.02 in Rain Light Rain
10:54 AM 42.1°F 24.1°F 49% 30.21 in 3.0 miles Variable 6.9 mph - 0.01 in Rain Light Rain
11:00 AM 42.8°F 24.8°F 49% 30.18 in 2.5 miles SSW 6.9 mph - 0.00 in Rain Light Rain
11:21 AM 42.8°F 24.8°F 49% 30.16 in 3.0 miles WSW 8.1 mph - 0.02 in Rain Light Rain
11:44 AM 44.6°F 26.6°F 49% 30.15 in 2.5 miles SSW 4.6 mph - 0.02 in Rain Light Rain
11:54 AM 36.0°F 26.1°F 67% 30.17 in 2.5 miles SSW 6.9 mph - 0.03 in Rain Light Rain
12:02 PM 30.2°F 26.6°F 86% 30.15 in 2.0 miles SSW 8.1 mph - 0.00 in Rain Light Freezing Rain
12:24 PM 30.2°F 26.6°F 86% 30.11 in 2.0 miles South 9.2 mph - N/A Rain Light Freezing Rain
12:49 PM 37.4°F 26.6°F 65% 30.09 in 2.5 miles WSW 8.1 mph - 0.06 in Rain Light Freezing Rain
12:54 PM 37.0°F 27.0°F 67% 30.11 in 2.5 miles SW 6.9 mph - 0.07 in Rain Light Freezing Rain
1:09 PM 42.8°F 28.4°F 57% 30.07 in 3.0 miles SSW 3.5 mph - 0.01 in Rain Light Rain
1:23 PM 41.0°F 28.4°F 61% 30.07 in 2.5 miles SW 4.6 mph - 0.01 in Rain Light Rain
1:54 PM 37.0°F 28.9°F 73% 30.08 in 1.5 miles WSW 4.6 mph - 0.04 in Rain Rain
2:29 PM 41.0°F 28.4°F 61% 30.03 in 1.5 miles SW 5.8 mph - 0.05 in Rain Rain
2:43 PM 37.4°F 28.4°F 70% 30.03 in 1.8 miles WSW 8.1 mph - 0.08 in Rain Light Rain
2:51 PM 37.4°F 28.4°F 70% 30.03 in 2.0 miles WSW 8.1 mph - 0.08 in Rain Light Rain
2:54 PM 37.9°F 28.9°F 70% 30.05 in 2.5 miles WSW 8.1 mph - 0.08 in Rain Light Rain
3:13 PM 41.0°F 30.2°F 65% 30.02 in 2.5 miles SW 6.9 mph - 0.00 in   Haze
3:37 PM 42.8°F 30.2°F 61% 30.01 in 2.5 miles WSW 8.1 mph - 0.00 in   Haze
3:54 PM 39.9°F 30.0°F 68% 30.04 in 2.0 miles WSW 6.9 mph - 0.00 in   Haze
4:09 PM 41.0°F 30.2°F 65% 30.01 in 1.8 miles WSW 5.8 mph - N/A   Haze
4:49 PM 39.2°F 30.2°F 70% 30.00 in 1.8 miles WSW 6.9 mph - 0.00 in Rain Light Rain
4:54 PM 37.9°F 30.0°F 73% 30.02 in 1.5 miles WSW 4.6 mph - 0.00 in Rain Light Rain
5:13 PM 35.6°F 30.2°F 81% 30.00 in 2.0 miles West 6.9 mph - 0.01 in Rain Light Freezing Rain
5:33 PM 35.6°F 30.2°F 81% 30.01 in 3.0 miles WSW 6.9 mph - 0.02 in Rain Light Rain
5:51 PM 42.8°F 30.2°F 61% 30.00 in 2.5 miles SW 4.6 mph - 0.02 in Rain Light Rain
5:54 PM 45.0°F 30.9°F 58% 30.02 in 2.5 miles SW 5.8 mph - 0.02 in Rain Light Rain
6:06 PM 46.4°F 30.2°F 53% 30.00 in 3.0 miles SSW 5.8 mph - 0.00 in Rain Light Rain
6:27 PM 46.4°F 30.2°F 53% 30.00 in 2.5 miles SW 6.9 mph - 0.00 in   Haze
6:45 PM 46.4°F 30.2°F 53% 30.00 in 3.0 miles SSW 5.8 mph - 0.00 in   Haze
6:54 PM 45.0°F 30.9°F 58% 30.02 in 3.0 miles SW 6.9 mph - 0.00 in   Haze
7:47 PM 42.8°F 30.2°F 61% 30.00 in 3.0 miles SW 5.8 mph - N/A   Haze
7:54 PM 44.1°F 30.9°F 60% 30.01 in 3.0 miles SW 8.1 mph - N/A   Haze
8:47 PM 42.8°F 30.2°F 61% 29.99 in 2.5 miles WSW 6.9 mph - N/A   Haze
8:54 PM 39.9°F 30.9°F 70% 30.00 in 2.0 miles SW 6.9 mph - N/A   Haze
9:54 PM 45.0°F 32.0°F 60% 29.99 in 2.0 miles SW 4.6 mph - N/A   Haze
10:12 PM 44.6°F 32.0°F 61% 29.98 in 1.5 miles SW 6.9 mph - N/A   Haze
10:32 PM 44.6°F 32.0°F 61% 29.98 in 2.0 miles SW 8.1 mph - N/A   Haze
10:54 PM 41.0°F 32.0°F 70% 29.99 in 2.5 miles SW 5.8 mph - N/A   Haze
11:34 PM 46.4°F 32.0°F 57% 29.99 in 1.8 miles SW 9.2 mph - N/A   Haze
11:54 PM 46.9°F 32.0°F 56% 30.00 in 1.8 miles SW 6.9 mph - N/A   Haze
Astronomy
Sunrise:07:17 AM (EST) Moon Rise:07:08 PM (EST)1/28
Sunset:05:14 PM (EST) Moon Set:07:40 AM (EST)1/28
Moon Phase
Jan. 28 Feb. 03 Feb. 10 Feb. 17 Feb. 25

Copyright © 2014 The Weather Underground, Inc.
8,